Showing default

LEMUR-2 JULIA-JOEL, 68476

Orbit data source: Space-Track

LEMUR-2 JULIA-JOEL, 68476 is a payload satellite owned by Spire (LU) in SSO that was launched on Mon, 30 Mar 2026 UTC via an FALCON 9 launch vehicle from the Air Force Western Test Range (AFWTR). Payload-class satellites include a variety of spacecraft equipped with specific instruments for various scientific and technological missions. These include communications satellites like Starlink; space stations such as the ISS; scientific satellites like the Hubble; Earth observation satellites from companies like Planet Labs, Umbra, and HawkEye 360; GPS; miniature CubeSats for education and research; and military/defense satellites.

Loading next visibility...
Identifier
68476, 2026-067BN
Orbit
SSO
Country
Flag of LULU / LUXE
Related business
Manufacturer
Spire/Glasgow
Mission
Operational spacecraft
Bus & Motor
CUBESAT 3U, Unknown motor
Mass
7.6 kg wet, 7.6 kg dry
Launch date (UTC)
2026-03-30 (3 months ago)
Launch vehicle
FALCON 9
Launch site
Air Force Western Test Range (AFWTR)
Object type
Payload
Rocket body
Debris
Shape & HBR
Unknown shape, 0.3 m
Radar Cross Section
Medium (>0.1 m² and <1 m²)

Expand to show TLE details & history
Last TLE update: 2 days ago

TLE from 2 days ago
0 LEMUR-2 JULIA-JOEL
1 68476U 26067BN  26171.42953485  .00003530  00000-0  34714-3 0  9992
2 68476  97.7564 129.6907 0000656 202.9431 157.1759 14.92757515 12210
Epoch: 2026-06-20T10:18Z
TLE epoch observation values (Epoch: 2026-06-20T10:18:31.811Z)
Latitude
-0.00001°
Longitude
66.41387°
Altitude
592.806 km
Speed
7.563 km/s
True Right ascension
08h 38m 45s
True Declination
0° 00' 00"
Sunlit
Object was in daylight at epoch
Visualization orbit readout
Latitude
Unknown
Longitude
Unknown
Altitude
Unknown
Speed
Unknown
Apparent Right ascension
Unknown
Apparent Declination
Unknown
Sunlit
N/A
Visualization observer readout
Local Sidereal Time
10:38:29
Azimuth
Unknown
Elevation
Unknown
Doppler factor
Unknown
Orbital elements
Apogee altitude
586.816 km
Perigee altitude
585.902 km
Semi-major axis
6,964.496 km
Eccentricity
0.00007
Inclination
97.7564°
RAAN
129.6907°
Arg. of periapsis
202.9431°
True anomaly
157.17882°
Mean anomaly
157.1759°
Eccentric anomaly
157.17736°
Mean motion
3.73429 °/min
Orbital period
96.4 mins
BSTAR
0.00034714
Loading maneuver chart data...
Computing Atmospheric mass density...
Loading historical data...
Loading historical data...
Loading historical data...
Loading historical data...
Loading historical data...
Loading historical data...
Loading historical data...

Documentation

Showing up to 5 results
|